NOAA NWS Hourly Roundups by Site

Regional Weather Roundup for Green Bay, WI

To Select Another Site Choose from List

Select Site:  

000
ASUS43 KGRB 162211
RWRGRB

NORTH-CENTRAL AND NORTHEAST WISCONSIN REGIONAL WEATHER ROUNDUP
NATIONAL WEATHER SERVICE GREEN BAY WI
500 PM CDT SUN MAY 16 2021

WIZ005-009-010>012-018-019-162300-
NORTH CENTRAL WISCONSIN

CITY           SKY/WX    TMP DP  RH WIND       PRES   REMARKS
IRONWOOD       SUNNY     72  41  32 VRB6      30.07F
MANITOWISH WTR MOSUNNY   70  42  36 S8        30.09S
ARBOR VITAE    MOSUNNY   72  39  30 W8        30.09S
EAGLE RIVER    PTSUNNY   69  36  30 CALM      30.09S
LAND O LAKES   SUNNY     68  35  29 CALM      30.10F
RHINELANDER    MOSUNNY   69  42  37 S5        30.10S
PHILLIPS       MOSUNNY   69  43  37 NW3       30.09S
ANTIGO         MOSUNNY   68  46  44 S3        30.10F
TOMAHAWK       MOSUNNY   70  42  35 CALM      30.09S
MERRILL        MOSUNNY   72  44  37 CALM      30.08F
$$

WIZ013-073-162300-
NORTHEAST WISCONSIN

CITY           SKY/WX    TMP DP  RH WIND       PRES   REMARKS
IRON MOUNTAIN  SUNNY     70  43  37 SE12G18   30.09F
MARINETTE      SUNNY     61  48  62 SE14      30.16F
OCONTO         SUNNY     65  49  57 SE12      30.14S
$$

WIZ017-030-035>037-045-162300-
CENTRAL WISCONSIN

CITY           SKY/WX    TMP DP  RH WIND       PRES   REMARKS
MEDFORD        MOSUNNY   66  46  48 CALM      30.10S
WAUSAU         MOSUNNY   74  42  31 E3        30.08F
MOSINEE        MOSUNNY   72  43  35 W5        30.11F
MARSHFIELD     MOSUNNY   72  48  42 SW6       30.09S
WISC RAPIDS    SUNNY     72  46  39 SE5       30.10F
STEVENS POINT  CLOUDY    71  44  37 E8        30.10S
WAUPACA        MOSUNNY   75  46  34 S5        30.11S
SHAWANO        MOSUNNY   71  48  44 E8        30.11F
CLINTONVILLE   PTSUNNY   71  44  37 S7        30.11S
WAUTOMA        MOSUNNY   72  46  39 S6        30.10F
$$

WIZ038-039-048-051-162300-
FOX VALLEY

CITY           SKY/WX    TMP DP  RH WIND       PRES   REMARKS
NWS GREEN BAY  PTSUNNY   66  51  58 E10       30.13F
APPLETON       MOSUNNY   70  46  43 S8        30.11F
OSHKOSH        MOSUNNY   68  49  50 E8        30.11F
FOND DU LAC    MOSUNNY   71  51  49 N10       30.12F
$$

WIZ022-050-052-162300-
EAST CENTRAL WISCONSIN

CITY           SKY/WX    TMP DP  RH WIND       PRES   REMARKS
EPHRAIM        FAIR      57  48  71 SE6       30.16S
WASHINGTON ISL MOCLDY    51  49  93 S9        30.17S
STURGEON BAY   SUNNY     60  47  61 SE12      30.16F
MANITOWOC      MOSUNNY   54  54 100 SE9       30.17F
SHEBOYGAN      SUNNY     62  52  69 S13       30.16F
$$

LMZ563-521-522-541>543-162300-
LAKESHORE

STATION/POSITION TIME  TEMP    WIND        PRES    VSBY  WAVE
                       AIR SEA DIR/SP/G                  HT/PER
                 (UTC) (F)     (DEG/KT/KT) (MB)    (MI)  (FT/S)
SHEBOYGAN LKSHOR 2200   48     170/  4/  5   N/A
KEWAUNEE LKSHORE 2130   49     160/  6/  9 1020.6F
NORTHPORT PIER   2140   49     130/ 10/ 13 1022.4F
SISTER BAY LKSHO 2200   59     130/ 10/ 13   N/A
CHAMBERS ISLAND  2140   59      60/ 10/ 13   N/A
MENOMINEE LKSHOR 2130   54 54  130/  7/  9 1020.0F
$$


 

View Past Reports for Green Bay, WI.

Products Courtesy of NOAA-NWS
NWS Information Parsing Script by Ken True at Saratoga Weather - Script by SE Lincoln Weather.